| time (UTC) | temp F | wind direction | speed knots | gust knots | rain 1hr in | rain 24hr in | rain mn in | humidity % | barometer mb |
| 20260507090715 | 52 | 281 | 1.7 | 3.5 | 0.00 | 0.00 | 0.00 | 75 | 1020.7 |
| 20260507090208 | 53 | 263 | 1.7 | 4.3 | 0.00 | 0.00 | 0.00 | 74 | 1020.7 |
| 20260507085703 | 53 | 239 | 2.6 | 5.2 | 0.00 | 0.00 | 0.00 | 74 | 1020.7 |
| 20260507085204 | 53 | 249 | 1.7 | 5.2 | 0.00 | 0.00 | 0.00 | 74 | 1020.7 |
| 20260507084707 | 53 | 216 | 1.7 | 3.5 | 0.00 | 0.00 | 0.00 | 74 | 1020.7 |
| 20260507084203 | 53 | 250 | 2.6 | 6.1 | 0.00 | 0.00 | 0.00 | 74 | 1020.7 |
| 20260507083703 | 53 | 241 | 3.5 | 6.1 | 0.00 | 0.00 | 0.00 | 73 | 1020.7 |
| 20260507083201 | 53 | 253 | 3.5 | 5.2 | 0.00 | 0.00 | 0.00 | 74 | 1020.7 |
| 20260507082702 | 53 | 258 | 2.6 | 5.2 | 0.00 | 0.00 | 0.00 | 73 | 1020.7 |
| 20260507081950 | 53 | 221 | 2.6 | 5.2 | 0.00 | 0.00 | 0.00 | 72 | 1020.7 |
| 20260507081201 | 53 | 246 | 2.6 | 5.2 | 0.00 | 0.00 | 0.00 | 72 | 1020.7 |
| 20260507080706 | 53 | 256 | 2.6 | 4.3 | 0.00 | 0.00 | 0.00 | 72 | 1020.7 |
| 20260507080204 | 53 | 244 | 2.6 | 5.2 | 0.00 | 0.00 | 0.00 | 72 | 1020.7 |
| 20260507075702 | 53 | 217 | 2.6 | 5.2 | 0.00 | 0.00 | 0.00 | 72 | 1020.7 |
| 20260507075202 | 53 | 258 | 2.6 | 6.1 | 0.00 | 0.00 | 0.00 | 71 | 1020.7 |
| 20260507074701 | 53 | 273 | 3.5 | 6.1 | 0.00 | 0.00 | 0.00 | 71 | 1020.7 |
| 20260507074203 | 53 | 267 | 3.5 | 8.7 | 0.00 | 0.00 | 0.00 | 71 | 1020.7 |
| 20260507073700 | 53 | 244 | 3.5 | 8.7 | 0.00 | 0.00 | 0.00 | 70 | 1020.7 |
| 20260507073159 | 53 | 217 | 2.6 | 6.1 | 0.00 | 0.00 | 0.00 | 70 | 1020.6 |
| 20260507072653 | 53 | 264 | 2.6 | 6.1 | 0.00 | 0.00 | 0.00 | 70 | 1020.6 |
| 20260507072147 | 53 | 265 | 1.7 | 5.2 | 0.00 | 0.00 | 0.00 | 71 | 1020.6 |
| 20260507071924 | 53 | 275 | 2.6 | 5.2 | 0.00 | 0.00 | 0.00 | 70 | 1020.7 |
| 20260507071141 | 53 | 294 | 2.6 | 5.2 | 0.00 | 0.00 | 0.00 | 70 | 1020.7 |
| 20260507070640 | 53 | 229 | 2.6 | 4.3 | 0.00 | 0.00 | 0.00 | 70 | 1020.7 |
| 20260507070140 | 53 | 229 | 2.6 | 5.2 | 0.00 | 0.00 | 0.00 | 71 | 1020.6 |
| 20260507065637 | 53 | 242 | 2.6 | 7.8 | 0.00 | 0.00 | 0.00 | 70 | 1020.6 |
| 20260507065137 | 53 | 242 | 2.6 | 7.8 | 0.00 | 0.00 | 0.00 | 70 | 1020.6 |
| 20260507064637 | 53 | 258 | 2.6 | 6.1 | 0.00 | 0.00 | 0.00 | 70 | 1020.7 |
| 20260507064135 | 53 | 237 | 2.6 | 6.1 | 0.00 | 0.00 | 0.00 | 70 | 1020.7 |
| 20260507063632 | 54 | 194 | 3.5 | 7.8 | 0.00 | 0.00 | 0.00 | 70 | 1020.7 |
| 20260507063133 | 53 | 188 | 4.3 | 7.8 | 0.00 | 0.00 | 0.00 | 70 | 1020.7 |
| 20260507062633 | 53 | 181 | 4.3 | 8.7 | 0.00 | 0.00 | 0.00 | 71 | 1020.7 |
| 20260507062422 | 53 | 186 | 3.5 | 8.7 | 0.00 | 0.00 | 0.00 | 70 | 1020.7 |
| 20260507061633 | 54 | 193 | 2.6 | 7.8 | 0.00 | 0.00 | 0.00 | 71 | 1020.7 |
| 20260507061137 | 54 | 204 | 2.6 | 3.5 | 0.00 | 0.00 | 0.00 | 70 | 1020.7 |
| 20260507060631 | 54 | 223 | 1.7 | 4.3 | 0.00 | 0.00 | 0.00 | 70 | 1020.7 |
| 20260507060131 | 54 | 242 | 1.7 | 4.3 | 0.00 | 0.00 | 0.00 | 70 | 1020.7 |
| 20260507055637 | 54 | 203 | 1.7 | 4.3 | 0.00 | 0.00 | 0.00 | 71 | 1020.7 |
| 20260507055135 | 54 | 257 | 2.6 | 7.8 | 0.00 | 0.00 | 0.00 | 71 | 1020.7 |
| 20260507054658 | 54 | 237 | 3.5 | 7.8 | 0.00 | 0.00 | 0.00 | 70 | 1020.7 |
| 20260507053631 | 54 | 201 | 2.6 | 6.1 | 0.00 | 0.00 | 0.00 | 70 | 1020.7 |
| 20260507053121 | 54 | 225 | 2.6 | 5.2 | 0.00 | 0.00 | 0.00 | 70 | 1020.7 |
| 20260507052604 | 54 | 275 | 1.7 | 4.3 | 0.00 | 0.00 | 0.00 | 70 | 1020.7 |
| 20260507052056 | 54 | 252 | 1.7 | 4.3 | 0.00 | 0.00 | 0.00 | 70 | 1020.7 |
| 20260507051838 | 54 | 263 | 1.7 | 3.5 | 0.00 | 0.00 | 0.00 | 70 | 1020.7 |
| 20260507051050 | 54 | 246 | 1.7 | 3.5 | 0.00 | 0.00 | 0.00 | 70 | 1020.7 |
| 20260507050542 | 54 | 281 | 2.6 | 4.3 | 0.00 | 0.00 | 0.00 | 70 | 1020.7 |
| 20260507050036 | 54 | 263 | 3.5 | 7.0 | 0.00 | 0.00 | 0.00 | 69 | 1020.7 |
| 20260507045533 | 55 | 271 | 5.2 | 11.3 | 0.00 | 0.00 | 0.00 | 69 | 1020.7 |
| 20260507045035 | 55 | 284 | 5.2 | 11.3 | 0.00 | 0.00 | 0.00 | 69 | 1020.7 |
| 20260507044534 | 55 | 285 | 3.5 | 8.7 | 0.00 | 0.00 | 0.00 | 68 | 1020.7 |
| 20260507044032 | 55 | 228 | 3.5 | 9.6 | 0.00 | 0.00 | 0.00 | 68 | 1020.7 |
| 20260507043531 | 55 | 309 | 4.3 | 9.6 | 0.00 | 0.00 | 0.00 | 69 | 1020.7 |
| 20260507043031 | 55 | 302 | 5.2 | 12.2 | 0.00 | 0.00 | 0.00 | 69 | 1020.7 |
| 20260507042532 | 55 | 265 | 5.2 | 12.2 | 0.00 | 0.00 | 0.00 | 69 | 1020.7 |
| 20260507042031 | 55 | 266 | 5.2 | 10.4 | 0.00 | 0.00 | 0.00 | 69 | 1020.7 |
| 20260507041540 | 55 | 279 | 6.1 | 12.2 | 0.00 | 0.00 | 0.00 | 69 | 1020.7 |
| 20260507041034 | 55 | 309 | 4.3 | 12.2 | 0.00 | 0.00 | 0.00 | 70 | 1020.7 |
| 20260507040603 | 55 | 290 | 4.3 | 11.3 | 0.00 | 0.00 | 0.00 | 71 | 1020.7 |
| 20260507035817 | 55 | 261 | 7.0 | 13.0 | 0.00 | 0.00 | 0.00 | 72 | 1020.7 |
| 20260507035315 | 55 | 262 | 6.1 | 13.0 | 0.00 | 0.00 | 0.00 | 72 | 1020.6 |
| 20260507034531 | 55 | 286 | 4.3 | 8.7 | 0.00 | 0.00 | 0.00 | 72 | 1020.6 |
| 20260507034033 | 55 | 262 | 4.3 | 8.7 | 0.00 | 0.00 | 0.00 | 72 | 1020.6 |
| 20260507033812 | 55 | 269 | 6.1 | 12.2 | 0.00 | 0.00 | 0.00 | 72 | 1020.4 |
| 20260507033034 | 55 | 334 | 7.0 | 12.2 | 0.00 | 0.00 | 0.00 | 72 | 1020.4 |
| 20260507032806 | 55 | 279 | 7.8 | 13.9 | 0.00 | 0.00 | 0.00 | 72 | 1020.4 |
| 20260507032025 | 55 | 343 | 7.0 | 13.9 | 0.00 | 0.00 | 0.00 | 72 | 1020.4 |
| 20260507031523 | 55 | 253 | 6.1 | 11.3 | 0.00 | 0.00 | 0.00 | 70 | 1020.4 |
| 20260507031024 | 55 | 278 | 6.1 | 12.2 | 0.00 | 0.00 | 0.00 | 71 | 1020.4 |
| 20260507030523 | 56 | 283 | 5.2 | 12.2 | 0.00 | 0.00 | 0.00 | 71 | 1020.2 |
| 20260507030021 | 56 | 299 | 4.3 | 9.6 | 0.00 | 0.00 | 0.00 | 70 | 1020.2 |
| 20260507025809 | 56 | 290 | 5.2 | 9.6 | 0.00 | 0.00 | 0.00 | 70 | 1020.2 |
| 20260507025018 | 56 | 256 | 4.3 | 9.6 | 0.00 | 0.00 | 0.00 | 70 | 1020.2 |
| 20260507024515 | 56 | 287 | 4.3 | 9.6 | 0.00 | 0.00 | 0.00 | 70 | 1020.2 |
| 20260507024014 | 56 | 310 | 4.3 | 9.6 | 0.00 | 0.00 | 0.00 | 70 | 1020.2 |
| 20260507023516 | 56 | 294 | 5.2 | 9.6 | 0.00 | 0.00 | 0.00 | 69 | 1020.0 |
| 20260507023015 | 56 | 295 | 5.2 | 9.6 | 0.00 | 0.00 | 0.00 | 69 | 1020.0 |
| 20260507022513 | 56 | 305 | 5.2 | 11.3 | 0.00 | 0.00 | 0.00 | 70 | 1020.0 |
| 20260507022012 | 56 | 313 | 6.1 | 12.2 | 0.00 | 0.00 | 0.00 | 71 | 1020.1 |
| 20260507021514 | 56 | 307 | 7.8 | 13.0 | 0.00 | 0.00 | 0.00 | 70 | 1020.1 |
| 20260507021014 | 56 | 308 | 7.8 | 13.0 | 0.00 | 0.00 | 0.00 | 71 | 1020.1 |
| 20260507020511 | 56 | 331 | 7.0 | 12.2 | 0.00 | 0.00 | 0.00 | 70 | 1020.1 |
| 20260507020010 | 56 | 286 | 7.0 | 12.2 | 0.00 | 0.00 | 0.00 | 71 | 1020.1 |
| 20260507015532 | 56 | 243 | 6.1 | 10.4 | 0.00 | 0.00 | 0.00 | 71 | 1020.1 |
| 20260507014501 | 56 | 291 | 8.7 | 17.4 | 0.00 | 0.00 | 0.00 | 71 | 1020.1 |
| 20260507013952 | 56 | 311 | 6.1 | 13.9 | 0.00 | 0.00 | 0.00 | 69 | 1020.1 |
| 20260507013448 | 57 | 333 | 4.3 | 10.4 | 0.00 | 0.00 | 0.00 | 68 | 1020.1 |
| 20260507012942 | 57 | 304 | 5.2 | 11.3 | 0.00 | 0.00 | 0.00 | 68 | 1020.1 |
| 20260507012437 | 57 | 321 | 4.3 | 11.3 | 0.00 | 0.00 | 0.00 | 68 | 1020.1 |
| 20260507011937 | 58 | 250 | 2.6 | 10.4 | 0.00 | 0.00 | 0.00 | 67 | 1020.1 |
| 20260507011439 | 58 | 239 | 3.5 | 7.8 | 0.00 | 0.00 | 0.00 | 67 | 1020.1 |
| 20260507010940 | 58 | 269 | 5.2 | 12.2 | 0.00 | 0.00 | 0.00 | 67 | 1020.1 |
| 20260507010439 | 58 | 334 | 4.3 | 12.2 | 0.00 | 0.00 | 0.00 | 67 | 1020.1 |
| 20260507005935 | 58 | 294 | 3.5 | 8.7 | 0.00 | 0.00 | 0.00 | 67 | 1020.1 |
| 20260507005433 | 58 | 242 | 4.3 | 10.4 | 0.00 | 0.00 | 0.00 | 66 | 1020.1 |
| 20260507004933 | 58 | 263 | 3.5 | 10.4 | 0.00 | 0.00 | 0.00 | 66 | 1020.0 |
| 20260507004434 | 58 | 264 | 2.6 | 6.1 | 0.00 | 0.00 | 0.00 | 67 | 1020.0 |
| 20260507004000 | 58 | 265 | 4.3 | 8.7 | 0.00 | 0.00 | 0.00 | 67 | 1020.0 |
| 20260507003216 | 58 | 284 | 5.2 | 10.4 | 0.00 | 0.00 | 0.00 | 67 | 1020.0 |
| 20260507002429 | 58 | 248 | 5.2 | 14.8 | 0.00 | 0.00 | 0.00 | 66 | 1020.0 |
| 20260507001931 | 58 | 314 | 5.2 | 14.8 | 0.00 | 0.00 | 0.00 | 67 | 1020.1 |
| 20260507001433 | 58 | 277 | 5.2 | 8.7 | 0.00 | 0.00 | 0.00 | 67 | 1020.1 |
| 20260507000927 | 57 | 298 | 5.2 | 10.4 | 0.00 | 0.00 | 0.00 | 67 | 1020.1 |
| 20260507000420 | 57 | 274 | 6.1 | 13.0 | 0.00 | 0.00 | 0.00 | 66 | 1020.1 |
| 20260506235918 | 57 | 316 | 5.2 | 13.0 | 0.00 | 0.00 | 0.00 | 67 | 1020.1 |
| 20260506235417 | 57 | 293 | 4.3 | 9.6 | 0.00 | 0.00 | 0.00 | 69 | 1020.1 |
| 20260506234917 | 57 | 281 | 4.3 | 11.3 | 0.00 | 0.00 | 0.00 | 70 | 1020.2 |
| 20260506234658 | 57 | 310 | 3.5 | 11.3 | 0.00 | 0.00 | 0.00 | 69 | 1020.2 |
| 20260506233916 | 57 | 304 | 3.5 | 8.7 | 0.00 | 0.00 | 0.00 | 69 | 1020.2 |
| 20260506233417 | 57 | 304 | 4.3 | 8.7 | 0.00 | 0.00 | 0.00 | 70 | 1020.2 |
| 20260506233158 | 57 | 277 | 5.2 | 10.4 | 0.00 | 0.00 | 0.00 | 70 | 1020.2 |
| 20260506232418 | 57 | 272 | 4.3 | 10.4 | 0.00 | 0.00 | 0.00 | 70 | 1020.2 |
| 20260506231911 | 57 | 256 | 2.6 | 5.2 | 0.00 | 0.00 | 0.00 | 70 | 1020.2 |
| 20260506231411 | 57 | 277 | 3.5 | 9.6 | 0.00 | 0.00 | 0.00 | 70 | 1020.2 |
| 20260506230911 | 57 | 313 | 4.3 | 9.6 | 0.00 | 0.00 | 0.00 | 69 | 1020.2 |
| 20260506230416 | 57 | 304 | 5.2 | 9.6 | 0.00 | 0.00 | 0.00 | 68 | 1020.2 |
| 20260506225909 | 57 | 255 | 5.2 | 9.6 | 0.00 | 0.00 | 0.00 | 68 | 1020.2 |
| 20260506225653 | 57 | 247 | 5.2 | 11.3 | 0.00 | 0.00 | 0.00 | 68 | 1020.2 |
| 20260506224907 | 57 | 278 | 5.2 | 11.3 | 0.00 | 0.00 | 0.00 | 69 | 1020.2 |
| 20260506224406 | 57 | 265 | 6.1 | 14.8 | 0.00 | 0.00 | 0.00 | 69 | 1020.2 |
| 20260506224148 | 57 | 224 | 7.0 | 14.8 | 0.00 | 0.00 | 0.00 | 68 | 1020.2 |
| 20260506223405 | 57 | 167 | 6.1 | 11.3 | 0.00 | 0.00 | 0.00 | 69 | 1020.2 |
| 20260506222903 | 57 | 176 | 7.0 | 13.9 | 0.00 | 0.00 | 0.00 | 69 | 1020.2 |
| 20260506222402 | 57 | 212 | 6.1 | 13.9 | 0.00 | 0.00 | 0.00 | 69 | 1020.2 |
| 20260506221906 | 57 | 217 | 5.2 | 11.3 | 0.00 | 0.00 | 0.00 | 69 | 1020.4 |
| 20260506221401 | 57 | 265 | 5.2 | 13.0 | 0.00 | 0.00 | 0.00 | 68 | 1020.4 |
| 20260506220852 | 57 | 190 | 5.2 | 13.0 | 0.00 | 0.00 | 0.00 | 68 | 1020.4 |
| 20260506220358 | 57 | 263 | 5.2 | 10.4 | 0.00 | 0.00 | 0.00 | 67 | 1020.3 |
| 20260506215851 | 57 | 242 | 5.2 | 10.4 | 0.00 | 0.00 | 0.00 | 67 | 1020.3 |
| 20260506215351 | 58 | 274 | 6.1 | 11.3 | 0.00 | 0.00 | 0.00 | 67 | 1020.3 |
| 20260506214853 | 57 | 253 | 6.1 | 13.0 | 0.00 | 0.00 | 0.00 | 66 | 1020.3 |
| 20260506214351 | 57 | 269 | 6.1 | 13.0 | 0.00 | 0.00 | 0.00 | 66 | 1020.3 |
| 20260506213849 | 57 | 252 | 7.0 | 15.6 | 0.00 | 0.00 | 0.00 | 67 | 1020.3 |
| 20260506213349 | 57 | 263 | 5.2 | 15.6 | 0.00 | 0.00 | 0.00 | 67 | 1020.4 |
| 20260506212854 | 57 | 201 | 4.3 | 12.2 | 0.00 | 0.00 | 0.00 | 67 | 1020.4 |
| 20260506212348 | 57 | 230 | 6.1 | 13.9 | 0.00 | 0.00 | 0.00 | 68 | 1020.4 |
| 20260506211838 | 57 | 267 | 6.1 | 13.9 | 0.00 | 0.00 | 0.00 | 68 | 1020.5 |
| 20260506211335 | 57 | 226 | 4.3 | 8.7 | 0.00 | 0.00 | 0.00 | 68 | 1020.5 |
| 20260506211117 | 57 | 221 | 6.1 | 13.9 | 0.00 | 0.00 | 0.00 | 68 | 1020.5 |
| 20260506210335 | 57 | 258 | 6.1 | 14.8 | 0.00 | 0.00 | 0.00 | 68 | 1020.4 |
| 20260506205836 | 57 | 261 | 5.2 | 14.8 | 0.00 | 0.00 | 0.00 | 68 | 1020.4 |
| 20260506205333 | 57 | 248 | 5.2 | 11.3 | 0.00 | 0.00 | 0.00 | 68 | 1020.4 |
| 20260506205127 | 57 | 277 | 5.2 | 10.4 | 0.00 | 0.00 | 0.00 | 69 | 1020.4 |
| 20260506204334 | 56 | 231 | 6.1 | 10.4 | 0.00 | 0.00 | 0.00 | 69 | 1020.4 |
| 20260506203831 | 56 | 260 | 6.1 | 13.0 | 0.00 | 0.00 | 0.00 | 69 | 1020.4 |
| 20260506203329 | 56 | 232 | 6.1 | 13.0 | 0.00 | 0.00 | 0.00 | 70 | 1020.2 |
| 20260506202830 | 57 | 217 | 5.2 | 14.8 | 0.00 | 0.00 | 0.00 | 70 | 1020.2 |
| 20260506202333 | 56 | 282 | 5.2 | 14.8 | 0.00 | 0.00 | 0.00 | 70 | 1020.2 |
| 20260506201829 | 57 | 239 | 4.3 | 10.4 | 0.00 | 0.00 | 0.00 | 70 | 1020.3 |
| 20260506201329 | 56 | 215 | 5.2 | 10.4 | 0.00 | 0.00 | 0.00 | 69 | 1020.3 |
| 20260506200828 | 57 | 226 | 4.3 | 10.4 | 0.00 | 0.00 | 0.00 | 69 | 1020.3 |
| 20260506200329 | 57 | 238 | 5.2 | 10.4 | 0.00 | 0.00 | 0.00 | 69 | 1020.2 |
| 20260506195831 | 56 | 235 | 6.1 | 10.4 | 0.00 | 0.00 | 0.00 | 69 | 1020.2 |
| 20260506195333 | 56 | 226 | 5.2 | 11.3 | 0.00 | 0.00 | 0.00 | 69 | 1020.2 |
| 20260506194830 | 56 | 249 | 5.2 | 11.3 | 0.00 | 0.00 | 0.00 | 69 | 1020.2 |
| 20260506194330 | 57 | 224 | 5.2 | 12.2 | 0.00 | 0.00 | 0.00 | 68 | 1020.2 |
| 20260506193832 | 56 | 183 | 5.2 | 12.2 | 0.00 | 0.00 | 0.00 | 68 | 1020.2 |
| 20260506193331 | 57 | 256 | 3.5 | 10.4 | 0.00 | 0.00 | 0.00 | 69 | 1020.2 |
| 20260506192831 | 56 | 265 | 5.2 | 10.4 | 0.00 | 0.00 | 0.00 | 69 | 1020.2 |
| 20260506192330 | 56 | 208 | 6.1 | 11.3 | 0.00 | 0.00 | 0.00 | 69 | 1020.2 |
| 20260506191829 | 56 | 261 | 6.1 | 12.2 | 0.00 | 0.00 | 0.00 | 69 | 1020.1 |
| 20260506191328 | 56 | 208 | 6.1 | 12.2 | 0.00 | 0.00 | 0.00 | 70 | 1020.1 |
| 20260506190830 | 56 | 159 | 5.2 | 11.3 | 0.00 | 0.00 | 0.00 | 70 | 1020.1 |
| 20260506190321 | 56 | 235 | 5.2 | 10.4 | 0.00 | 0.00 | 0.00 | 70 | 1020.2 |
| 20260506185809 | 56 | 267 | 5.2 | 10.4 | 0.00 | 0.00 | 0.00 | 70 | 1020.2 |
| 20260506185308 | 56 | 248 | 5.2 | 12.2 | 0.00 | 0.00 | 0.00 | 70 | 1020.2 |
| 20260506184808 | 56 | 194 | 5.2 | 12.2 | 0.00 | 0.00 | 0.00 | 71 | 1020.1 |
| 20260506184312 | 56 | 150 | 6.1 | 12.2 | 0.00 | 0.00 | 0.00 | 71 | 1020.1 |
| 20260506184055 | 56 | 229 | 6.1 | 12.2 | 0.00 | 0.00 | 0.00 | 71 | 1020.1 |
| 20260506183600 | 56 | 190 | 5.2 | 12.2 | 0.00 | 0.00 | 0.00 | 70 | 1020.1 |
| 20260506182809 | 56 | 210 | 5.2 | 12.2 | 0.00 | 0.00 | 0.00 | 70 | 1020.1 |
| 20260506182311 | 56 | 255 | 5.2 | 10.4 | 0.00 | 0.00 | 0.00 | 70 | 1020.1 |
| 20260506181805 | 56 | 219 | 6.1 | 12.2 | 0.00 | 0.00 | 0.00 | 70 | 1019.9 |
| 20260506181306 | 56 | 244 | 7.0 | 12.2 | 0.00 | 0.00 | 0.00 | 70 | 1019.9 |
| 20260506180804 | 56 | 264 | 6.1 | 12.2 | 0.00 | 0.00 | 0.00 | 70 | 1019.9 |
| 20260506180304 | 56 | 221 | 6.1 | 11.3 | 0.00 | 0.00 | 0.00 | 68 | 1019.6 |
| 20260506175806 | 56 | 223 | 5.2 | 11.3 | 0.00 | 0.00 | 0.00 | 68 | 1019.6 |
| 20260506175306 | 56 | 204 | 5.2 | 12.2 | 0.00 | 0.00 | 0.00 | 68 | 1019.6 |
| 20260506174802 | 56 | 219 | 5.2 | 12.2 | 0.00 | 0.00 | 0.00 | 68 | 1019.7 |
| 20260506174301 | 56 | 256 | 5.2 | 11.3 | 0.00 | 0.00 | 0.00 | 69 | 1019.7 |
| 20260506173802 | 56 | 265 | 6.1 | 12.2 | 0.00 | 0.00 | 0.00 | 69 | 1019.7 |
| 20260506173301 | 56 | 231 | 5.2 | 12.2 | 0.00 | 0.00 | 0.00 | 68 | 1019.6 |
| 20260506172801 | 56 | 220 | 5.2 | 9.6 | 0.00 | 0.00 | 0.00 | 68 | 1019.6 |
| 20260506172306 | 56 | 260 | 5.2 | 9.6 | 0.00 | 0.00 | 0.00 | 68 | 1019.6 |
| 20260506172050 | 56 | 200 | 4.3 | 7.8 | 0.00 | 0.00 | 0.00 | 68 | 1019.7 |
| 20260506171301 | 56 | 275 | 3.5 | 9.6 | 0.00 | 0.00 | 0.00 | 69 | 1019.7 |
| 20260506171048 | 56 | 255 | 4.3 | 9.6 | 0.00 | 0.00 | 0.00 | 69 | 1019.7 |
| 20260506170304 | 56 | 277 | 3.5 | 8.7 | 0.00 | 0.00 | 0.00 | 68 | 1019.7 |
| 20260506165801 | 56 | 240 | 3.5 | 7.8 | 0.00 | 0.00 | 0.00 | 69 | 1019.7 |
| 20260506165552 | 56 | 223 | 3.5 | 7.0 | 0.00 | 0.00 | 0.00 | 70 | 1019.7 |
| 20260506165121 | 56 | 247 | 3.5 | 9.6 | 0.00 | 0.00 | 0.00 | 70 | 1019.7 |
| 20260506164303 | 56 | 233 | 3.5 | 9.6 | 0.00 | 0.00 | 0.00 | 70 | 1019.7 |
| 20260506163807 | 56 | 221 | 4.3 | 10.4 | 0.00 | 0.00 | 0.00 | 71 | 1019.7 |
| 20260506162739 | 55 | 258 | 4.3 | 9.6 | 0.00 | 0.00 | 0.00 | 71 | 1019.6 |
| 20260506162233 | 55 | 223 | 6.1 | 13.0 | 0.00 | 0.00 | 0.00 | 71 | 1019.6 |
| 20260506161732 | 55 | 215 | 5.2 | 13.0 | 0.00 | 0.00 | 0.00 | 72 | 1019.4 |
| 20260506161228 | 55 | 239 | 4.3 | 9.6 | 0.00 | 0.00 | 0.00 | 72 | 1019.4 |
| 20260506160955 | 55 | 261 | 4.3 | 9.6 | 0.00 | 0.00 | 0.00 | 72 | 1019.4 |
| 20260506160213 | 55 | 205 | 4.3 | 9.6 | 0.00 | 0.00 | 0.00 | 73 | 1019.2 |
| 20260506155711 | 54 | 206 | 4.3 | 9.6 | 0.00 | 0.00 | 0.00 | 73 | 1019.2 |
| 20260506155211 | 54 | 236 | 3.5 | 9.6 | 0.00 | 0.00 | 0.00 | 74 | 1019.2 |
| 20260506154712 | 54 | 275 | 2.6 | 6.1 | 0.00 | 0.00 | 0.00 | 75 | 1019.3 |
| 20260506154209 | 54 | 245 | 2.6 | 6.1 | 0.00 | 0.00 | 0.00 | 75 | 1019.3 |
| 20260506153710 | 54 | 244 | 2.6 | 4.3 | 0.00 | 0.00 | 0.00 | 77 | 1019.3 |
| 20260506153209 | 54 | 209 | 2.6 | 5.2 | 0.00 | 0.00 | 0.00 | 77 | 1019.2 |
| 20260506152712 | 54 | 208 | 2.6 | 5.2 | 0.00 | 0.00 | 0.00 | 77 | 1019.2 |
| 20260506152210 | 53 | 220 | 2.6 | 5.2 | 0.00 | 0.00 | 0.00 | 78 | 1019.2 |
| 20260506151709 | 53 | 217 | 2.6 | 5.2 | 0.00 | 0.00 | 0.00 | 79 | 1019.4 |
| 20260506151448 | 53 | 280 | 2.6 | 5.2 | 0.00 | 0.00 | 0.00 | 79 | 1019.4 |
| 20260506150705 | 53 | 267 | 2.6 | 5.2 | 0.00 | 0.00 | 0.00 | 79 | 1019.4 |
| 20260506150514 | 53 | 250 | 3.5 | 6.1 | 0.00 | 0.00 | 0.00 | 79 | 1019.2 |
| 20260506145203 | 53 | 236 | 3.5 | 6.1 | 0.00 | 0.00 | 0.00 | 80 | 1019.2 |
| 20260506144658 | 53 | 233 | 3.5 | 6.1 | 0.00 | 0.00 | 0.00 | 80 | 1019.2 |
| 20260506144155 | 53 | 203 | 3.5 | 7.8 | 0.00 | 0.00 | 0.00 | 80 | 1019.2 |
| 20260506143644 | 53 | 238 | 3.5 | 7.8 | 0.00 | 0.00 | 0.00 | 80 | 1019.2 |
| 20260506143134 | 53 | 239 | 3.5 | 7.8 | 0.00 | 0.00 | 0.00 | 80 | 1019.1 |
| 20260506142624 | 53 | 239 | 4.3 | 9.6 | 0.00 | 0.00 | 0.00 | 80 | 1019.1 |
| 20260506142125 | 53 | 248 | 4.3 | 9.6 | 0.00 | 0.00 | 0.00 | 80 | 1019.1 |
| 20260506141612 | 53 | 237 | 4.3 | 9.6 | 0.00 | 0.00 | 0.00 | 80 | 1018.7 |
| 20260506141111 | 53 | 257 | 4.3 | 9.6 | 0.00 | 0.00 | 0.00 | 80 | 1018.7 |
| 20260506140605 | 53 | 245 | 3.5 | 8.7 | 0.00 | 0.00 | 0.00 | 80 | 1018.8 |
| 20260506140119 | 53 | 277 | 2.6 | 6.1 | 0.00 | 0.00 | 0.00 | 81 | 1018.8 |
| 20260506135046 | 53 | 261 | 3.5 | 8.7 | 0.00 | 0.00 | 0.00 | 81 | 1018.8 |
| 20260506134545 | 53 | 223 | 2.6 | 7.8 | 0.00 | 0.00 | 0.00 | 81 | 1018.8 |
| 20260506134111 | 53 | 231 | 2.6 | 7.8 | 0.00 | 0.00 | 0.00 | 82 | 1018.8 |
| 20260506133324 | 53 | 240 | 3.5 | 7.8 | 0.00 | 0.00 | 0.00 | 82 | 1018.8 |
| 20260506132543 | 53 | 268 | 2.6 | 7.8 | 0.00 | 0.00 | 0.00 | 82 | 1018.8 |
| 20260506132038 | 53 | 249 | 2.6 | 6.1 | 0.00 | 0.00 | 0.00 | 82 | 1018.8 |
| 20260506131537 | 53 | 257 | 2.6 | 5.2 | 0.00 | 0.00 | 0.00 | 82 | 1018.8 |
| 20260506131037 | 53 | 246 | 3.5 | 7.8 | 0.00 | 0.00 | 0.00 | 82 | 1018.8 |
| 20260506130536 | 53 | 247 | 3.5 | 7.8 | 0.00 | 0.00 | 0.00 | 82 | 1018.5 |
| 20260506130343 | 53 | 261 | 2.6 | 5.2 | 0.00 | 0.00 | 0.00 | 84 | 1018.5 |
| 20260506125032 | 52 | 190 | 2.6 | 5.2 | 0.00 | 0.00 | 0.00 | 83 | 1018.6 |
| 20260506124531 | 52 | 251 | 2.6 | 5.2 | 0.00 | 0.00 | 0.00 | 83 | 1018.6 |
| 20260506124030 | 52 | 266 | 2.6 | 3.5 | 0.00 | 0.00 | 0.00 | 83 | 1018.6 |
| 20260506123530 | 52 | 272 | 2.6 | 5.2 | 0.00 | 0.00 | 0.00 | 83 | 1018.4 |
| 20260506123029 | 53 | 293 | 3.5 | 6.1 | 0.00 | 0.00 | 0.00 | 83 | 1018.4 |
| 20260506122818 | 53 | 285 | 2.6 | 6.1 | 0.00 | 0.00 | 0.00 | 82 | 1018.4 |
| 20260506122027 | 53 | 261 | 3.5 | 6.1 | 0.00 | 0.00 | 0.00 | 82 | 1018.3 |
| 20260506121524 | 53 | 270 | 3.5 | 7.0 | 0.00 | 0.00 | 0.00 | 82 | 1018.3 |
| 20260506121011 | 53 | 247 | 3.5 | 7.0 | 0.00 | 0.00 | 0.00 | 82 | 1018.3 |
| 20260506120509 | 53 | 231 | 3.5 | 6.1 | 0.00 | 0.00 | 0.00 | 82 | 1018.2 |
| 20260506120007 | 53 | 238 | 3.5 | 6.1 | 0.00 | 0.00 | 0.00 | 82 | 1018.2 |
| 20260506115503 | 53 | 216 | 2.6 | 6.1 | 0.00 | 0.00 | 0.00 | 82 | 1018.2 |
| 20260506114957 | 53 | 223 | 1.7 | 5.2 | 0.00 | 0.00 | 0.00 | 82 | 1018.1 |
| 20260506114440 | 53 | 220 | 2.6 | 4.3 | 0.00 | 0.00 | 0.00 | 82 | 1018.1 |
| 20260506113942 | 53 | 237 | 2.6 | 4.3 | 0.00 | 0.00 | 0.00 | 82 | 1018.1 |
| 20260506113431 | 53 | 253 | 1.7 | 4.3 | 0.00 | 0.00 | 0.00 | 82 | 1018.0 |
| 20260506113217 | 53 | 233 | 1.7 | 4.3 | 0.00 | 0.00 | 0.00 | 82 | 1018.0 |
| 20260506112428 | 53 | 212 | 2.6 | 4.3 | 0.00 | 0.00 | 0.00 | 82 | 1018.0 |
| 20260506112214 | 53 | 252 | 2.6 | 4.3 | 0.00 | 0.00 | 0.00 | 82 | 1018.0 |
| 20260506111428 | 53 | 256 | 1.7 | 4.3 | 0.00 | 0.00 | 0.00 | 82 | 1018.0 |
| 20260506111214 | 53 | 259 | 1.7 | 2.6 | 0.00 | 0.00 | 0.00 | 82 | 1018.0 |
| 20260506110429 | 53 | 252 | 1.7 | 3.5 | 0.00 | 0.00 | 0.00 | 82 | 1018.0 |
| 20260506105918 | 53 | 251 | 1.7 | 3.5 | 0.00 | 0.00 | 0.00 | 82 | 1018.0 |
| 20260506105417 | 53 | 269 | 1.7 | 3.5 | 0.00 | 0.00 | 0.00 | 82 | 1018.0 |
| 20260506104917 | 53 | 249 | 1.7 | 3.5 | 0.00 | 0.00 | 0.00 | 82 | 1017.7 |
| 20260506104704 | 53 | 245 | 1.7 | 3.5 | 0.00 | 0.00 | 0.00 | 82 | 1017.7 |
| 20260506103918 | 53 | 233 | 1.7 | 3.5 | 0.00 | 0.00 | 0.00 | 83 | 1017.7 |
| 20260506103418 | 53 | 238 | 1.7 | 3.5 | 0.00 | 0.00 | 0.00 | 83 | 1017.6 |
| 20260506103159 | 53 | 223 | 1.7 | 4.3 | 0.00 | 0.00 | 0.00 | 83 | 1017.6 |
| 20260506102405 | 53 | 261 | 1.7 | 4.3 | 0.00 | 0.00 | 0.00 | 83 | 1017.6 |
| 20260506101906 | 53 | 260 | 2.6 | 5.2 | 0.00 | 0.00 | 0.00 | 83 | 1017.6 |
| 20260506101406 | 53 | 218 | 2.6 | 5.2 | 0.00 | 0.00 | 0.00 | 83 | 1017.6 |
| 20260506100904 | 53 | 263 | 2.6 | 4.3 | 0.00 | 0.00 | 0.00 | 82 | 1017.6 |
| 20260506100722 | 53 | 248 | 1.7 | 4.3 | 0.00 | 0.00 | 0.00 | 82 | 1017.5 |
| 20260506095402 | 53 | 231 | 2.6 | 4.3 | 0.00 | 0.00 | 0.00 | 81 | 1017.5 |
| 20260506094902 | 53 | 216 | 2.6 | 4.3 | 0.00 | 0.00 | 0.00 | 81 | 1017.3 |
| 20260506094400 | 53 | 258 | 2.6 | 4.3 | 0.00 | 0.00 | 0.00 | 81 | 1017.3 |
| 20260506093852 | 53 | 202 | 2.6 | 4.3 | 0.00 | 0.00 | 0.00 | 81 | 1017.3 |
| 20260506093643 | 53 | 257 | 2.6 | 4.3 | 0.00 | 0.00 | 0.00 | 81 | 1017.3 |
| 20260506093139 | 53 | 259 | 2.6 | 4.3 | 0.00 | 0.00 | 0.00 | 80 | 1017.3 |
| 20260506092642 | 53 | 242 | 2.6 | 4.3 | 0.00 | 0.00 | 0.00 | 80 | 1017.3 |
| 20260506091846 | 53 | 237 | 2.6 | 5.2 | 0.00 | 0.00 | 0.00 | 80 | 1017.2 |
| 20260506091344 | 53 | 263 | 2.6 | 5.2 | 0.00 | 0.00 | 0.00 | 80 | 1017.2 |
| 20260506091131 | 53 | 261 | 1.7 | 4.3 | 0.00 | 0.00 | 0.00 | 80 | 1017.2 |